General Aviation Weather

Text Reports

Enter one or more of the following location identifiers separated by a space:

Zip Code, Four-Character ICAO or Three-Character IATA airport codes.

METAR - Aviation Routine Weather Report
KPEO - Penn Yan, New York
Updated at 5:53 PM GMT on September 18, 2014 (1:53 PM EDT):
METAR KPEO 181753Z AUTO VRB05KT 10SM BKN011 OVC018 14/11 A3009 RMK AO2 SLP190 T01440111 10183 20133 53010 $
TAF - Terminal Area Forecast
KPEO - Penn Yan, New York
Updated at 5:53 PM GMT on September 18, 2014 (1:53 PM EDT):
No TAF is currently available for this location.
Decoded:
No decoded TAF is available.
PIREP - Pilot Weather Report
KPEO - Penn Yan, New York
Updated at 5:53 PM GMT on September 18, 2014 (1:53 PM EDT):
No PIREP is currently available for this location.
AIRMET - Airmens Meteorological Information
KPEO - Penn Yan, New York
Updated at 5:53 PM GMT on September 18, 2014 (1:53 PM EDT):
No AIRMET is currently available for this location.
SIGMET - Significant Meteorological Information
KPEO - Penn Yan, New York
Updated at 5:53 PM GMT on September 18, 2014 (1:53 PM EDT):
No SIGMET is currently available for this location.
NOTAM - Notice to Airmen
KPEO - Penn Yan, New York
Updated at 5:53 PM GMT on September 18, 2014 (1:53 PM EDT):
No NOTAM is currently available for this location.
Forecast Area
KPEO - Penn Yan, New York
Updated at 5:53 PM GMT on September 18, 2014 (1:53 PM EDT):
No NOTAM is currently available for this location.
Aviation Weather Maps